This demonstration page uses our WeatherBlox Daily Observations layout. Learn more.

Left ArrowRight Arrow

34.74481, -87.66753

Hourly Observations for March 30, 2022

Temp ( °F °C ) Dew Point ( °F °C ) Humidity (%) Winds ( mph kmh ) Pressure ( in mb ) Visibility ( mi km ) Precip ( " mm )
12:53 am 00:53 Clear 70 21.1 55 12.8 59 59 S 13 20 29.84 1011 10 16 0.00 0.00
1:53 am 01:53 Clear 69 20.6 56 13.3 63 63 S 13 20 29.83 1010 10 16 0.00 0.00
2:53 am 02:53 Clear 68 20 56 13.3 65 65 S 13 20 29.82 1010 10 16 0.00 0.00
3:53 am 03:53 Clear 67 19.4 57 13.9 71 71 S 8 13 29.81 1010 10 16 0.00 0.00
4:53 am 04:53 Clear 66 18.9 57 13.9 73 73 S 12 19 29.81 1009 10 16 0.00 0.00
5:53 am 05:53 Mostly Clear 65 18.3 57 13.9 76 76 SSE 9 15 29.80 1009 10 16 0.00 0.00
6:53 am 06:53 Sunny 65 18.3 56 13.3 73 73 SE 10 17 29.80 1009 10 16 0.00 0.00
7:53 am 07:53 Mostly Sunny 66 18.9 55 12.8 68 68 SSE 10 17 29.83 1010 10 16 0.00 0.00
8:53 am 08:53 Sunny 68 20 54 12.2 61 61 SSE 10 17 29.82 1010 10 16 0.00 0.00
9:53 am 09:53 Mostly Cloudy 71 21.7 52 11.1 51 51 S 15 24 29.83 1010 10 16 0.00 0.00
10:53 am 10:53 Sunny 72 22.2 54 12.2 53 53 S 18 30 29.80 1009 10 16 0.00 0.00
11:53 am 11:53 Sunny 76 24.4 55 12.8 48 48 S 18 30 29.76 1008 10 16 0.00 0.00
12:53 pm 12:53 Partly Cloudy 78 25.6 56 13.3 47 47 S 20 31 29.71 1006 10 16 0.00 0.00
1:53 pm 13:53 Mostly Sunny 82 27.8 58 14.4 44 44 S 22 35 29.62 1003 10 16 0.00 0.00
2:53 pm 14:53 Mostly Cloudy 82 27.8 58 14.4 44 44 S 22 35 29.57 1001 10 16 0.00 0.00
3:53 pm 15:53 Mostly Cloudy 80 26.7 57 13.9 45 45 S 21 33 29.52 1000 10 16 0.00 0.00
4:53 pm 16:53 Mostly Sunny 79 26.1 56 13.3 45 45 S 25 41 29.46 998 10 16 0.00 0.00
5:53 pm 17:53 Mostly Sunny 79 26.1 54 12.2 42 42 S 25 41 29.45 997 10 16 0.00 0.00
6:53 pm 18:53 Cloudy with Rain 73 22.8 58 14.4 59 59 S 21 33 29.46 998 6 10 0.01 0.25
7:53 pm 19:53 Cloudy with Light Rain 68 20 63 17.2 84 84 SSW 17 28 29.51 999 6 10 0.08 2.03
8:04 pm 20:04 Cloudy with Nearby Thunderstorms 67 19.4 63 17.2 87 87 SSW 15 24 29.53 1000 3 4 0.08 2.03
8:19 pm 20:19 Cloudy with Nearby Thunderstorms 67 19.4 64 17.8 91 91 SSW 14 22 29.54 1000 4 6 0.13 3.30
8:26 pm 20:26 Cloudy with Rain 67 19.4 64 17.8 91 91 SSW 12 19 29.53 1000 3 5 0.16 4.06
8:31 pm 20:31 Cloudy with Heavy Rain 67 19.4 64 17.8 91 91 SSW 13 20 29.53 1000 2 3 0.26 6.60
8:38 pm 20:38 Cloudy with Nearby Thunderstorms 67 19.4 64 17.8 91 91 WSW 22 35 29.56 1001 2 3 0.32 8.13
8:53 pm 20:53 Cloudy with Nearby Thunderstorms 61 16.1 58 14.4 90 90 SSW 18 30 29.57 1002 2 2 0.53 13.46
8:59 pm 20:59 Cloudy with Strong Thunderstorms 61 16.1 58 14.4 90 90 SSW 16 26 29.59 1002 3 4 0.05 1.27
9:10 pm 21:10 Cloudy with Thunderstorms 61 16.1 58 14.4 90 90 WSW 9 15 29.58 1002 4 6 0.08 2.03
9:20 pm 21:20 Cloudy with Rain 61 16.1 58 14.4 90 90 SSW 9 15 29.58 1002 5 8 0.11 2.79
9:53 pm 21:53 Cloudy with Rain 61 16.1 57 13.9 87 87 S 14 22 29.55 1001 4 6 0.23 5.84
10:53 pm 22:53 Clear 61 16.1 57 13.9 87 87 WSW 6 9 29.55 1001 10 16 0.04 1.02
11:53 pm 23:53 Clear 61 16.1 57 13.9 87 87 SSW 10 17 29.57 1001 10 16 0.00 0.00

Powered by AerisWeather